Regional Weather Roundup
Issued by NWS Mobile, AL

Home | Current Version | Previous Version | Text Only | Print | Product List | Glossary On
Versions: 1 2 3 4 5 6 7 8 9 10 11 12 13 14 15 16 17 18 19 20 21 22 23 24 25 26 27 28 29 30 31 32 33 34 35 36 37 38 39 40 41 42 43 44 45 46 47 48 49 50
000
ASUS44 KMOB 250216
RWRMOB
REGIONAL WEATHER ROUNDUP
NATIONAL WEATHER SERVICE MOBILE AL
900 PM CDT SUN MAY 24 2015

ALZ061>064-250300-
COASTAL ALABAMA


CITY           SKY/WX    TMP DP  RH WIND       PRES   REMARKS
MOBILE REG APT MOCLDY    78  74  87 SE16      30.10R
BROOKLEY FIELD MOCLDY    80  74  81 SE18      30.11R
GULF SHORES    CLOUDY    79  74  85 SE13G21   30.10S

$$

ALZ051>060-250300-
INTERIOR SOUTHWEST AND SOUTH CENTRAL ALABAMA


CITY           SKY/WX    TMP DP  RH WIND       PRES   REMARKS
ANDALUSIA/OPP  PTCLDY    77  70  79 SE6       30.15R
EVERGREEN      CLEAR     77  70  79 SE8       30.14R
FLORALA        PTCLDY    73  69  87 E3        30.17R
GREENVILLE     FAIR      77  70  79 S5        30.14R

$$

FLZ001>006-250300-
WESTERN FLORIDA PANHANDLE


CITY           SKY/WX    TMP DP  RH WIND       PRES   REMARKS
CRESTVIEW      CLEAR     77  71  82 SE3       30.15R
DESTIN         CLEAR     80  74  81 SE12      30.13R
DUKE FIELD     FAIR      77  71  81 SE3       30.13R
MARY ESTHER    CLEAR     79  73  80 SE10G23   30.12R
MILTON         MOCLDY    77  71  82 SE6       30.13R
PENSACOLA      MOCLDY    78  73  84 SE14      30.11S
NAS PENSACOLA  MOCLDY    80  74  81 SE16      30.11S
VALPARAISO     PTCLDY    79  72  78 S12       30.13R

$$

...MARINE OBSERVATIONS...

STATION/POSITION TIME  SKY/WX   TEMP    WIND        PRES    VSBY
                                AIR SEA DIR/SP/G
                 (UTC)          (F)     (DEG/KT/KT) (MB)    (MI)
PASCAGOULA       0100            81     140/ 17/ 22 1018.1R
PETIT BOIS ISL   0100            81     140/ 18/ 25 1018.7R
E DAUPHIN ISLAND 0200            80     130/ 22/ 24 1018.8R
MIDDLE BAY LIGHT 0100            80     130/ 23     1017.3F
USCG MOBILE BAY  0100            80 83  140/  9/ 15 1018.0R
STATE DOCKS      0100            80 81              1018.9R
MEAHER PARK      0200            79     120/  7     1019.0R
FORT MORGAN      0100            80     150/ 24/ 26 1018.2R
12 S ORANGE BCH  0150            80 80  130/ 19/ 21 1018.3R
WVE H/P(F/S)=  5/ 6

PENSACOLA BAY    0100            80 82  150/  4/  8 1020.0R
64 S DAUPHIN ISL 0150            80 78  140/ 21/ 25 1018.5R
WVE H/P(F/S)=  5/ 7

67 S FORT MORGAN 0130            79     140/ 21     1018.6
115 SE PENSACOLA 0150            80 80  120/ 12/ 14 1020.2R
WVE H/P(F/S)=  4/ 6

MID GULF/42001   0150            82 82  130/ 12/ 14 1017.5R
WVE H/P(F/S)=  3/ 6

EAST GULF/42003  0150            81 82  110/ 14/ 16 1018.5R
WVE H/P(F/S)=  4/ 6


$$

...NEARBY LOCATIONS

CITY           SKY/WX    TMP DP  RH WIND       PRES   REMARKS
GULFPORT       CLOUDY    81  75  82 SE16G30   30.06R
BILOXI         MOCLDY    80  76  88 S20G26    30.06R
PASCAGOULA     MOCLDY    80  74  81 SE16      30.08R
HATTIESBURG    CLOUDY    73  70  90 SE6       30.08R
LAUREL         CLOUDY    75  68  78 SE9       30.08R
MERIDIAN       MOCLDY    77  72  84 SE6       30.07R
MERIDIAN NAS   CLOUDY    74  70  87 SE10      30.09R
MONTGOMERY     CLOUDY    79  68  69 E7        30.13R
MAXWELL AFB    MOCLDY    81  67  62 E12       30.13R
TROY           MOCLDY    79  67  66 SE5       30.16R
FORT RUCKER    CLOUDY    75  70  84 NW6       30.14R
DALEVILLE      LGT RAIN  74  71  90 NW5       30.15R
DOTHAN         MOCLDY    81  63  54 SE6       30.19R

$$

...OTHER SURROUNDING LOCATIONS...

CITY           SKY/WX    TMP DP  RH WIND       PRES   REMARKS
BIRMINGHAM     CLOUDY    71  68  90 SE6       30.17R
TUSCALOOSA     CLOUDY    71  67  87 VRB5      30.12R
COLUMBUS GA    CLEAR     76  58  53 E8        30.17R
PANAMA CITY    NOT AVBL
TALLAHASSEE    CLEAR     82  63  52 E12       30.16R
BATON ROUGE    TSTM      71  69  93 SW7       30.01R FOG
NEW ORLEANS    CLOUDY    82  73  74 SE12      30.01S
SLIDELL        MOCLDY    82  74  76 SE10      30.03R
JACKSON        TSTM      71  69  93 S9G21     30.06R FOG
MCCOMB         CLOUDY    75  73  93 SE7       30.02R

$$

...SURROUNDING MARINE OBSERVATIONS...

STATION/POSITION TIME  SKY/WX   TEMP    WIND        PRES    VSBY
                                AIR SEA DIR/SP/G
                 (UTC)          (F)     (DEG/KT/KT) (MB)    (MI)
WAVELAND         0100            81 83  150/ 19/ 25 1017.1R
PASCAGOULA RGN A 0100            81     140/ 14/ 21 1018.0R
PASCAGOULA PORT  0100               83                N/A
GRAND ISLE       0100            82 82  150/ 10/ 17 1016.8R
SOUTHWEST PASS   0200            81     160/ 19/ 20 1017.7R
PILOT STATION E  0100            81 75  150/ 12/ 18 1017.7R
SHELL BEACH      0100            82 84  160/ 13/ 17 1016.5R
PANAMA CITY      0100            83 83  150/  5/ 10 1019.8R
APALACHICOLA     0100            81 81  130/  5/  7 1020.4R
TYNDALL TOWER C  0200            80     100/  7/  7 1020.6R
S APLCHCLA/42036 0150            81 80   90/ 10/ 12 1020.5R
WVE H/P(F/S)=  3/ 5


$$




USA.gov is the U.S. government's official web portal to all federal, state and local government web resources and services.